Torna al catalogo

STARLINK-31439

AttivoComunicazioniVLEO
NORAD 59178·PAYLOAD·🇺🇸 United States

Lanciato Mar 10, 2024 da Cape Canaveral Space Force Station

Loading…

Prossimi Passaggi (prossime 24 ore)

TLE

AggiornatoSource: CelesTrak SupGP

Epoca: Sep 14, 2026, 20:54 UTC

1 59178C 24045A   26257.87131944 -.00000735  00000+0 -26622-4 0  2579
2 59178  43.0020 100.8530 0001298 274.2217  40.8218 15.27570474    19

Traccia STARLINK-31439 in tempo reale con AllMySat

Download on the App Store